Weather History for Wenatchee, WA

Change the Weather History Date:

Thursday, April 5, 2012

  Actual Average Record
Temperature  
Mean Temperature 44 °F 44 °F  
Max Temperature 53 °F 54 °F 78 °F (1977)
Min Temperature 34 °F 33 °F 29 °F (1997)
Degree Days  
Heating Degree Days 21 21  
Month to date heating degree days 99 107  
Since 1 July heating degree days 5250 6115  
Cooling Degree Days 0 0  
Month to date cooling degree days 0 0  
Year to date cooling degree days 0 0  
Moisture  
Dew Point 26 °F    
Average Humidity 56    
Maximum Humidity 79    
Minimum Humidity 32    
Precipitation  
Precipitation 0.04 in 0.05 in 0.29 in (2010)
Month to date precipitation 0.04 0.26  
Year to date precipitation 3.11 5.30  
Snow  
Snow 0.00 in 0.10 in - ()
Month to date snowfall 0.6  
Since 1 July snowfall 52.3  
Snow Depth -    
Sea Level Pressure  
Sea Level Pressure 30.05 in    
Wind  
Wind Speed 7 mph (NW)    
Max Wind Speed 20 mph    
Max Gust Speed 24 mph    
Visibility 10 miles    
Events Rain    
T = Trace of Precipitation, MM = Missing Value Source: NWS Daily Summary

Daily Weather History Graph

Daily Weather History Graph

Search for Another Location

Airport:

Trip Planner

Search our weather history database for the weather conditions in past years. The results will help you decide how hot, cold, wet, or windy it might be!

Date:

Astronomy

Apr. 05, 2012 Rise Set
Actual Time 6:30 AM PDT 7:36 PM PDT
Civil Twilight 5:59 AM PDT 8:08 PM PDT
Nautical Twilight 5:21 AM PDT 8:46 PM PDT
Astronomical Twilight 4:41 AM PDT 9:26 PM PDT
Moon 6:48 PM PDT (4/5) 5:32 AM PDT (4/5)
Length of Visible Light 14h 09m
Length of Day
13h 06m
Waxing Gibbous, 98% of the Moon is Illuminated
Apr 5
Waxing Gibbous
Apr 6
Full
Apr 13
Last Quarter
Apr 21
New
Apr 29
First Quarter

Hourly Weather History & Observations

Time (PDT) Temp. Windchill Dew Point Humidity Pressure Visibility Wind Dir Wind Speed Gust Speed Precip Events Conditions
12:55 AM 37.0 °F 31.6 °F 23.0 °F 57% 30.00 in 10.0 mi NNW 6.9 mph - N/A   Clear
1:55 AM 37.9 °F 33.5 °F 23.0 °F 55% 30.01 in 10.0 mi NNW 5.8 mph - N/A   Clear
2:55 AM 35.1 °F - 23.0 °F 61% 30.01 in 10.0 mi Calm Calm - N/A   Clear
3:55 AM 36.0 °F 33.3 °F 23.0 °F 59% 30.02 in 10.0 mi NW 3.5 mph - N/A   Clear
4:55 AM 35.1 °F 30.1 °F 24.1 °F 64% 30.02 in 10.0 mi West 5.8 mph - N/A   Mostly Cloudy
5:55 AM 36.0 °F 32.1 °F 24.1 °F 62% 30.04 in 10.0 mi WNW 4.6 mph - N/A   Overcast
6:55 AM 35.1 °F 30.1 °F 24.1 °F 64% 30.05 in 10.0 mi WNW 5.8 mph - N/A   Clear
8:55 AM 37.0 °F 32.4 °F 26.1 °F 65% 30.07 in 10.0 mi West 5.8 mph - N/A   Scattered Clouds
9:55 AM 42.1 °F 40.2 °F 26.1 °F 53% 30.07 in 10.0 mi West 3.5 mph - N/A   Clear
10:55 AM 46.0 °F 41.4 °F 24.1 °F 42% 30.07 in 10.0 mi WNW 9.2 mph - N/A   Mostly Cloudy
11:55 AM 48.0 °F - 21.9 °F 36% 30.06 in 10.0 mi NW 4.6 mph - N/A   Mostly Cloudy
12:55 PM 48.0 °F - 21.0 °F 34% 30.04 in 10.0 mi SSW 6.9 mph - N/A   Mostly Cloudy
1:55 PM 50.0 °F - 21.0 °F 32% 30.03 in 10.0 mi Variable 4.6 mph - N/A   Partly Cloudy
2:55 PM 50.0 °F - 21.0 °F 32% 30.01 in 10.0 mi SSE 8.1 mph - N/A   Partly Cloudy
3:55 PM 51.1 °F - 25.0 °F 36% 30.00 in 10.0 mi NNE 11.5 mph 16.1 mph N/A   Overcast
4:15 PM 51.8 °F - 23.0 °F 33% 29.99 in 10.0 mi Variable 5.8 mph 23.0 mph N/A   Overcast
4:55 PM 50.0 °F - 26.1 °F 39% 30.02 in 10.0 mi SE 10.4 mph - N/A   Overcast
5:48 PM 44.6 °F 41.4 °F 26.6 °F 49% 30.02 in 10.0 mi NW 5.8 mph - 0.00 in Rain Light Rain
5:55 PM 44.1 °F 38.1 °F 30.0 °F 58% 30.04 in 10.0 mi North 11.5 mph 17.3 mph 0.00 in   Overcast
7:39 PM 39.2 °F 33.0 °F 32.0 °F 75% 30.07 in 10.0 mi North 9.2 mph - 0.01 in Rain Light Rain
7:55 PM 39.0 °F 31.8 °F 33.1 °F 79% 30.09 in 10.0 mi NNW 11.5 mph - 0.03 in Rain Light Rain
8:11 PM 39.2 °F 31.6 °F 33.8 °F 81% 30.05 in 10.0 mi NNW 12.7 mph - 0.01 in Rain Light Rain
8:55 PM 39.9 °F 36.7 °F 33.1 °F 77% 30.10 in 10.0 mi WNW 4.6 mph - 0.01 in   Overcast
9:55 PM 39.0 °F 34.8 °F 33.1 °F 79% 30.11 in 10.0 mi NNW 5.8 mph - N/A   Mostly Cloudy
10:55 PM 39.0 °F 31.8 °F 33.1 °F 79% 30.10 in 10.0 mi NW 11.5 mph - N/A   Overcast
11:55 PM 39.0 °F 34.0 °F 33.1 °F 79% 30.10 in 10.0 mi NNW 6.9 mph - 0.00 in Rain Light Rain